Powrót do katalogu

COSMOS 1275 DEB

AktywnyPO
NORAD 13814·DEBRIS·🇷🇺 Russia

Wystrzelony Jun 4, 1981 z Plesetsk Cosmodrome

Loading…

Następne Przeloty (najbliższe 24 godziny)

TLE

ŚwieżeSource: Space-Track

Epoka: Sep 13, 2026, 06:34 UTC

1 13814U 81053HJ  26256.27416867  .00009992  00000-0  14749-2 0  9992
2 13814  82.9197 186.3937 0008613  90.8663  69.2529 14.75172165252238

Śledź COSMOS 1275 DEB w czasie rzeczywistym z AllMySat

Download on the App Store